Weather History for KI39 - October, 2011

Change the Weather History Date:

Tuesday, October 11, 2011

  Actual Average (KLOZ) Record (KLOZ)
Temperature  
Mean Temperature 66 °F 59 °F  
Max Temperature 73 °F 71 °F 86 °F (2008)
Min Temperature 60 °F 47 °F 26 °F (1964)
Degree Days  
Heating Degree Days 0 7  
Month to date heating degree days 63  
Since 1 July heating degree days 110  
Cooling Degree Days 2 1  
Month to date cooling degree days 13  
Growing Degree Days 16 (Base 50)    
Moisture  
Dew Point 52 °F    
Average Humidity 63    
Maximum Humidity 88    
Minimum Humidity 50    
Precipitation  
Precipitation 0.00 in 0.09 in 0.31 in (2011)
Month to date precipitation 1.05  
Sea Level Pressure  
Sea Level Pressure 30.03 in    
Wind  
Wind Speed 5 mph (ESE)    
Max Wind Speed 10 mph    
Max Gust Speed -    
Visibility 10 miles    
Events      
T = Trace of Precipitation, MM = Missing Value Source: NWS Daily Summary

Daily Weather History Graph

Daily Weather History Graph

Search for Another Location

Airport or City:

Trip Planner

Search our weather history database for the weather conditions in past years. The results will help you decide how hot, cold, wet, or windy it might be!

Date:

Astronomy

Oct. 11, 2011 Rise Set
Actual Time 7:41 AM EDT 7:06 PM EDT
Civil Twilight 7:15 AM EDT 7:32 PM EDT
Nautical Twilight 6:44 AM EDT 8:02 PM EDT
Astronomical Twilight 6:14 AM EDT 8:32 PM EDT
Moon 6:38 PM EDT (10/11) 7:18 AM EDT (10/11)
Length of Visible Light 12h 16m
Length of Day
11h 24m
Full, 100% of the Moon is Illuminated
Oct 11
Full
Oct 11
Full
Oct 19
Last Quarter
Oct 26
New
Nov 2
First Quarter

Hourly Weather History & Observations

Time (EDT) Temp. Dew Point Humidity Pressure Visibility Wind Dir Wind Speed Gust Speed Precip Events Conditions
12:15 AM 62.6 °F 50.0 °F 63% 30.08 in 10.0 mi ESE 4.6 mph - N/A   Unknown
12:35 AM 62.6 °F 50.0 °F 63% 30.07 in 10.0 mi East 5.8 mph - N/A   Unknown
12:55 AM 62.6 °F 50.0 °F 63% 30.06 in 10.0 mi East 4.6 mph - N/A   Unknown
1:15 AM 62.6 °F 50.0 °F 63% 30.06 in 10.0 mi ESE 5.8 mph - N/A   Unknown
1:35 AM 62.6 °F 50.0 °F 63% 30.05 in 10.0 mi East 3.5 mph - N/A   Unknown
1:55 AM 62.6 °F 50.0 °F 63% 30.05 in 10.0 mi Calm Calm - N/A   Unknown
2:15 AM 62.6 °F 50.0 °F 63% 30.05 in 10.0 mi Calm Calm - N/A   Unknown
2:35 AM 60.8 °F 50.0 °F 68% 30.05 in 10.0 mi East 3.5 mph - N/A   Unknown
2:55 AM 60.8 °F 50.0 °F 68% 30.05 in 10.0 mi Calm Calm - N/A   Unknown
3:15 AM 62.6 °F 50.0 °F 63% 30.05 in 10.0 mi ESE 3.5 mph - N/A   Unknown
3:55 AM 62.6 °F 50.0 °F 63% 30.04 in 10.0 mi East 3.5 mph - N/A   Unknown
4:15 AM 62.6 °F 50.0 °F 63% 30.04 in 10.0 mi East 3.5 mph - N/A   Unknown
4:35 AM 62.6 °F 50.0 °F 63% 30.04 in 10.0 mi East 5.8 mph - N/A   Unknown
4:55 AM 62.6 °F 50.0 °F 63% 30.04 in 10.0 mi East 3.5 mph - N/A   Unknown
5:15 AM 62.6 °F 50.0 °F 63% 30.04 in 10.0 mi East 3.5 mph - N/A   Unknown
5:35 AM 62.6 °F 50.0 °F 63% 30.05 in 10.0 mi Calm Calm - N/A   Unknown
5:55 AM 62.6 °F 51.8 °F 68% 30.05 in 10.0 mi Calm Calm - N/A   Unknown
6:15 AM 62.6 °F 50.0 °F 63% 30.05 in 10.0 mi Calm Calm - N/A   Unknown
6:35 AM 62.6 °F 50.0 °F 63% 30.06 in 10.0 mi Calm Calm - N/A   Unknown
6:55 AM 62.6 °F 50.0 °F 63% 30.06 in 10.0 mi East 4.6 mph - N/A   Unknown
7:15 AM 64.4 °F 50.0 °F 59% 30.06 in 10.0 mi East 3.5 mph - N/A   Unknown
7:35 AM 62.6 °F 50.0 °F 63% 30.07 in 10.0 mi ESE 4.6 mph - N/A   Unknown
7:55 AM 62.6 °F 50.0 °F 63% 30.06 in 10.0 mi ESE 6.9 mph - N/A   Unknown
8:35 AM 62.6 °F 51.8 °F 68% 30.07 in 10.0 mi ESE 3.5 mph - N/A   Unknown
8:55 AM 62.6 °F 50.0 °F 63% 30.07 in 10.0 mi ESE 4.6 mph - N/A   Unknown
9:15 AM 64.4 °F 51.8 °F 64% 30.07 in 10.0 mi SE 6.9 mph - N/A   Unknown
9:35 AM 64.4 °F 51.8 °F 64% 30.08 in 10.0 mi SE 5.8 mph - N/A   Unknown
9:55 AM 64.4 °F 53.6 °F 68% 30.08 in 10.0 mi SE 6.9 mph - N/A   Unknown
10:15 AM 64.4 °F 53.6 °F 68% 30.07 in 10.0 mi SE 5.8 mph - N/A   Unknown
10:35 AM 64.4 °F 53.6 °F 68% 30.07 in 10.0 mi ESE 5.8 mph - N/A   Unknown
10:55 AM 64.4 °F 53.6 °F 68% 30.07 in 10.0 mi ESE 5.8 mph - N/A   Unknown
11:55 AM 68.0 °F 53.6 °F 60% 30.05 in 10.0 mi ESE 5.8 mph - N/A   Unknown
12:15 PM 68.0 °F 53.6 °F 60% 30.04 in 10.0 mi East 9.2 mph - N/A   Unknown
12:35 PM 68.0 °F 53.6 °F 60% 30.04 in 10.0 mi ESE 9.2 mph - N/A   Unknown
12:55 PM 68.0 °F 53.6 °F 60% 30.04 in 10.0 mi ESE 8.1 mph - N/A   Unknown
1:15 PM 69.8 °F 53.6 °F 56% 30.04 in 10.0 mi ESE 9.2 mph - N/A   Unknown
1:55 PM 69.8 °F 53.6 °F 56% 30.02 in 10.0 mi ESE 9.2 mph - N/A   Unknown
2:15 PM 69.8 °F 53.6 °F 56% 30.01 in 10.0 mi SE 9.2 mph - N/A   Unknown
2:35 PM 73.4 °F 53.6 °F 50% 29.99 in 10.0 mi SSE 6.9 mph - N/A   Unknown
2:55 PM 71.6 °F 53.6 °F 53% 29.99 in 10.0 mi ESE 6.9 mph - N/A   Unknown
3:15 PM 69.8 °F 53.6 °F 56% 29.98 in 10.0 mi ESE 10.4 mph - N/A   Unknown
3:35 PM 69.8 °F 51.8 °F 53% 29.98 in 10.0 mi ESE 8.1 mph - N/A   Unknown
3:55 PM 69.8 °F 51.8 °F 53% 29.98 in 10.0 mi SE 9.2 mph - N/A   Unknown
4:15 PM 68.0 °F 53.6 °F 60% 29.98 in 10.0 mi SE 8.1 mph - N/A   Unknown
4:35 PM 68.0 °F 53.6 °F 60% 29.97 in 10.0 mi ESE 6.9 mph - N/A   Unknown
4:55 PM 68.0 °F 53.6 °F 60% 29.97 in 10.0 mi ESE 5.8 mph - N/A   Unknown
5:15 PM 68.0 °F 53.6 °F 60% 29.97 in 10.0 mi ESE 4.6 mph - N/A   Unknown
5:35 PM 68.0 °F 53.6 °F 60% 29.96 in 10.0 mi ESE 4.6 mph - N/A   Unknown
5:55 PM 68.0 °F 53.6 °F 60% 29.96 in 10.0 mi ESE 3.5 mph - N/A   Unknown
6:15 PM 66.2 °F 53.6 °F 64% 29.96 in 10.0 mi ESE 3.5 mph - N/A   Unknown
6:35 PM 66.2 °F 53.6 °F 64% 29.96 in 10.0 mi ESE 3.5 mph - N/A   Unknown
6:55 PM 66.2 °F 53.6 °F 64% 29.95 in 10.0 mi ESE 4.6 mph - N/A   Unknown
7:15 PM 64.4 °F 55.4 °F 73% 29.96 in 10.0 mi ESE 6.9 mph - N/A   Unknown
7:35 PM 62.6 °F 55.4 °F 77% 29.96 in 10.0 mi Calm Calm - N/A   Unknown
7:55 PM 62.6 °F 57.2 °F 82% 29.97 in 10.0 mi SE 3.5 mph - N/A   Unknown
8:15 PM 60.8 °F 57.2 °F 88% 29.97 in 10.0 mi SE 3.5 mph - N/A   Unknown
8:35 PM 60.8 °F 59.0 °F 94% 29.96 in 10.0 mi ESE 6.9 mph - N/A   Unknown
8:55 PM 60.8 °F 57.2 °F 88% 29.96 in 10.0 mi ESE 6.9 mph - N/A   Unknown
9:15 PM 60.8 °F 57.2 °F 88% 29.96 in 10.0 mi ESE 4.6 mph - N/A   Unknown
9:35 PM 59.0 °F 57.2 °F 94% 29.97 in 10.0 mi Calm Calm - N/A   Unknown
9:55 PM 59.0 °F 59.0 °F 100% 29.98 in 10.0 mi Calm Calm - N/A   Unknown
10:15 PM 59.0 °F 59.0 °F 100% 29.98 in 10.0 mi Calm Calm - N/A   Unknown
10:35 PM 59.0 °F 59.0 °F 100% 29.98 in 10.0 mi Calm Calm - N/A   Unknown
10:55 PM 59.0 °F 59.0 °F 100% 29.97 in 7.0 mi East 3.5 mph - N/A   Unknown
11:15 PM 59.0 °F 57.2 °F 94% 29.97 in 10.0 mi East 5.8 mph - N/A   Unknown
11:35 PM 59.0 °F 57.2 °F 94% 29.97 in 10.0 mi East 5.8 mph - N/A   Unknown
11:55 PM 59.0 °F 57.2 °F 94% 29.96 in 10.0 mi East 4.6 mph - N/A   Unknown